Regional Weather Roundup
Issued by NWS

Home | Current Version | Previous Version | Text Only | Print | Product List | Glossary On
Versions: 1 2 3 4 5 6 7 8 9 10 11 12 13 14 15 16 17 18 19 20 21 22 23 24 25 26 27 28 29 30 31 32 33 34 35 36 37 38 39 40 41 42 43 44 45 46 47 48 49 50
000
ASUS44 KJAN 232310
RWRMS

MISSISSIPPI HOURLY WEATHER ROUNDUP
NATIONAL WEATHER SERVICE JACKSON MS
600 PM CDT WED JUL 23 2014

NOTE: "FAIR: INDICATES FEW OR NO CLOUDS BELOW 12,000 FEET WITH NO
SIGNIFICANT WEATHER AND/OR OBSTRUCTIONS TO VISIBILITY.

MSZ001>002-007>008-010>013-018>021-025>028-034>036-240000-
NORTHWEST MISSISSIPPI

CITY           SKY/WX    TMP DP  RH WIND       PRES   REMARKS
CLARKSDALE     PTSUNNY   84  77  79 N23G30    30.00R HX  94
CLEVELAND      FAIR      87  78  74 CALM      29.99R HX 100
GREENWOOD      PTSUNNY   89  73  59 S3        29.97R HX  97
GREENVILLE     MOSUNNY   88  75  65 CALM      29.99R HX  97
GRENADA        FAIR      86  73  66 NE3       29.98R HX  93
OXFORD         RAIN      73  70  88 NW3       30.04R
TUNICA         CLOUDY    73  70  88 SE10G17   30.01F
$$

MSZ003>006-009-014>017-022>024-029>033-037>039-240000-
NORTHEAST MISSISSIPPI

CITY           SKY/WX    TMP DP  RH WIND       PRES   REMARKS
BELMONT        FAIR      74  71  89 SW5       29.98F THUNDER
COLUMBUS AFB   PTSUNNY   87  74  66 E21G26    29.98R HX  95
CORINTH        FAIR      81  70  69 SW3       29.95F
GOLDN TRIANGLE PTSUNNY   88  73  62 CALM      29.97S HX  96
STARKVILLE     CLOUDY    82  73  74 NW3       29.97S
TUPELO         MOSUNNY   87  71  58 S5        29.98R HX  93
$$

MSZ040-058-240000-
CENTRAL MISSISSIPPI

CITY           SKY/WX    TMP DP  RH WIND       PRES   REMARKS
JACKSON INTL   PTSUNNY   82  75  79 SW3       29.96F
JACKSON HAWKNS LGT RAIN  78  71  79 NW7       29.97S
MERIDIAN KEY   MOSUNNY   86  68  54 S6        29.96S
MERIDIAN NAS   MOSUNNY   88  70  55 VRB3      29.96F HX  93
RAYMOND        FAIR      86  82  89 CALM      29.98R THUNDER HX 105
VICKSBURG      SUNNY     89  73  59 CALM      29.96R HX  97
$$

MSZ059>079-240000-
SOUTH MISSISSIPPI

CITY           SKY/WX    TMP DP  RH WIND       PRES   REMARKS
BROOKHAVEN     FAIR      88  72  58 CALM      29.98S HX  94
COLUMBIA       FAIR      84  75  74 S5        29.95S HX  92
HATTIESBURG    SUNNY     84  72  67 S6        29.96F
MCCOMB         MOSUNNY   86  73  65 S9        29.96F HX  93
NATCHEZ        MOSUNNY   84  73  70 SE5       29.97R HX  91
PINE BELT      MOSUNNY   82  70  65 S9        29.98F
$$

MSZ080>082-240000-
COASTAL MISSISSIPPI

CITY           SKY/WX    TMP DP  RH WIND       PRES   REMARKS
BAY ST LOUIS   MOSUNNY  N/A N/A N/A S7        29.96F
BILOXI         SUNNY     82  73  72 S9        29.97F
PASCAGOULA     CLOUDY    84  74  71 S8        29.97F HX  91
GULFPORT       SUNNY     86  70  58 S9        29.96F HX  90
$$



USA.gov is the U.S. government's official web portal to all federal, state and local government web resources and services.